LENINGRAD/PULKOVO current weather conditions

sailwx.info

Wind from 180 at 7 knots

Air temperature -0.0° C
Visibility: greater than 5.4 NM
Dewpoint -2.0° C
Present weather: Light snow showers.

Last reported at 2020-Jan-26 07:00 UTC.
Time now 2020-Jan-26 08:15 UTC

Location: N 59°48' E 030°16'.
View on Google Maps.

See reports from other nearby stations

  
Tides and Currents Weather Stations Pressure Air Temp Water Temp Dewpoint Dewpoint Depression Visibility Wind Speed Wind Dir Waves Ship Positions
date/time (UTC)wind fromknots sea level pressurealtimeterstation pressurevisibilityair tempwater tempwave heightnotes
2020-Jan-26 07:00 180 7 5.4-0.0 Light snow showers.
2020-Jan-26 06:30 210 7 5.4-0.0 Light snow showers.
2020-Jan-26 06:00 220 7 5.4-0.0 Light snow.
2020-Jan-26 05:30 230 7 5.4-0.0
2020-Jan-26 05:00 230 5 5.4-0.0
2020-Jan-26 04:30 240 3 5.4-1.0
2020-Jan-26 04:00 240 3 5.4-1.0
2020-Jan-26 03:30 240 3 5.4-2.0
2020-Jan-26 03:00 250 3 5.4-1.0
2020-Jan-26 02:30 250 3 5.4-3.0
2020-Jan-26 02:00 240 3 5.4-3.0
2020-Jan-26 01:30 240 3 5.4-2.0
2020-Jan-26 01:00 250 3 5.4-2.0
2020-Jan-26 00:30 250 5 5.4-1.0
2020-Jan-26 00:00 240 3 5.4-3.0
2020-Jan-25 23:30 260 3 5.4-2.0
2020-Jan-25 23:00 270 5 5.4-3.0
2020-Jan-25 22:30 270 7 5.4-3.0
2020-Jan-25 22:00 270 7 5.4-4.0
2020-Jan-25 21:30 270 9 5.4-3.0
2020-Jan-25 21:00 270 9 5.4-1.0
2020-Jan-25 20:30 270 9 5.4-1.0
2020-Jan-25 20:00 270 9 5.4-1.0
2020-Jan-25 19:30 290 11 5.4-1.0
2020-Jan-25 19:00 280 11 5.4-0.0
2020-Jan-25 18:30 290 15 5.4-1.0
2020-Jan-25 18:00 300 15 5.4-1.0
2020-Jan-25 17:30 300 19 5.4-0.0
2020-Jan-25 17:00 300 17 5.4-0.0
2020-Jan-25 16:30 300 21 5.4 1.0
2020-Jan-25 16:00 300 17 5.4 1.0
2020-Jan-25 15:30 310 15 5.4 1.0
2020-Jan-25 15:00 310 19 gusting 29 5.4 1.0
2020-Jan-25 14:30 310 15 gusting 25 5.4 1.0
2020-Jan-25 14:00 310 13 gusting 23 5.4 1.0
2020-Jan-25 13:30 310 17 5.4 1.0
2020-Jan-25 13:00 290 19 5.4 1.0
2020-Jan-25 12:30 290 17 5.4 1.0
2020-Jan-25 12:00 290 19 5.4 1.0
2020-Jan-25 11:30 280 19 5.4 1.0
2020-Jan-25 11:00 280 19 5.4 1.0
2020-Jan-25 10:30 280 19 gusting 29 5.4 1.0
2020-Jan-25 10:00 290 25 5.4 1.0
2020-Jan-25 09:30 290 19 5.4 1.0
2020-Jan-25 09:00 290 17 gusting 29 5.4 1.0
2020-Jan-25 08:30 280 17 gusting 27 5.4 1.0
2020-Jan-25 08:00 280 15 5.4 1.0
2020-Jan-25 07:30 280 15 gusting 25 5.4 1.0
2020-Jan-25 07:00 270 15 5.4 1.0
2020-Jan-25 06:30 280 17 5.4-0.0
2020-Jan-25 06:00 280 15 5.4 1.0
2020-Jan-25 05:30 290 17 5.4 1.0
2020-Jan-25 05:00 280 17 5.4 2.0
2020-Jan-25 04:30 280 15 5.4 2.0 Light rain showers.
2020-Jan-25 04:00 270 11 5.4 1.0 Light rain showers.
2020-Jan-25 03:30 260 9 gusting 19 5.4 1.0 Light rain showers.
2020-Jan-25 03:00 260 9 5.4 1.0 Light rain showers.
2020-Jan-25 02:30 240 9 5.4 2.0 Light rain showers.
2020-Jan-25 02:00 240 11 5.4 2.0
2020-Jan-25 01:30 240 9 5.4 2.0
2020-Jan-25 01:00 240 7 5.4 2.0
2020-Jan-25 00:30 240 7 5.4 2.0
2020-Jan-25 00:00 250 9 5.4 2.0
2020-Jan-24 23:30 250 7 5.4 2.0
2020-Jan-24 23:00 260 7 5.4 1.0
2020-Jan-24 22:30 260 9 5.4 1.0
2020-Jan-24 22:00 270 11 5.4 1.0
2020-Jan-24 21:30 270 15 5.4 2.0
2020-Jan-24 21:00 270 11 5.4 1.0
2020-Jan-24 20:30 270 7 5.4 1.0
2020-Jan-24 20:00 260 9 5.4 1.0
2020-Jan-24 19:30 270 9 5.4 2.0
2020-Jan-24 19:00 270 13 5.4 2.0
2020-Jan-24 18:30 270 13 5.4 2.0
2020-Jan-24 18:00 270 11 5.4 2.0
2020-Jan-24 17:30 270 11 5.4 2.0
2020-Jan-24 17:00 270 11 5.4 2.0
2020-Jan-24 16:30 260 9 5.4 1.0
2020-Jan-24 16:00 280 5 5.4 1.0
2020-Jan-24 15:30 260 5 5.4 1.0
2020-Jan-24 15:00 290 3 5.4 1.0
2020-Jan-24 14:30 290 5 5.4 1.0
2020-Jan-24 14:00 280 7 5.4 1.0
2020-Jan-24 13:30 280 9 5.4 2.0
2020-Jan-24 13:00 270 9 5.4 2.0
2020-Jan-24 12:30 270 9 5.4 3.0
2020-Jan-24 12:00 270 11 5.4 3.0
2020-Jan-24 11:30 270 11 5.4 3.0
2020-Jan-24 11:00 280 11 5.4 4.0
2020-Jan-24 10:30 280 13 5.4 4.0
2020-Jan-24 10:00 270 13 5.4 4.0
2020-Jan-24 09:30 280 15 5.4 4.0
2020-Jan-24 09:00 270 13 5.4 3.0
2020-Jan-24 08:30 270 13 5.4 3.0
2020-Jan-24 08:00 270 11 5.4 3.0